Flag for Australia Weather past 2 weeks in Adelaide, South Australia, Australia

Now
57 °F

Overcast.


Feels Like: 56 °F
Forecast: 50 / 61 °F
Wind: 6 mph from South

Location: Adelaide Airport

Current Time: Apr 26, 2015 at 8:27:07 PM

Latest Report: Apr 26, 2015 at 8:00 PM


Visibility: N/A

Pressure: 30.30 "Hg

Humidity: 63%

Dew point: 45 °F

Location of AdelaideLocation

Historic Weather in Adelaide — Graph

°F

Adelaide temperature yesterday

Maximum temperature yesterday: 63 °F (at 11:30 AM)
Minimum temperature yesterday: 48 °F (at 2:00 AM)
Average temperature yesterday: 55 °F

Past Weeks' High & Low Weather Summary

 TemperatureHumidityPressure
High82 °F (Apr 14, 1:00 PM)100% (Apr 17, 3:30 AM)30.69 "Hg (Apr 17, 3:30 AM)
Low45 °F (Apr 20, 6:00 AM)23% (Apr 14, 10:30 AM)29.56 "Hg (Apr 24, 11:30 PM)
Average60 °F69%30.15 "Hg
* Reported Apr 11 6:30 PM — Apr 26 6:30 PM, Adelaide, Weather by CustomWeather, © 2015

Note: Actual official high and low records may vary slightly from our data, if they occured in-between our weather recording intervals... More about our weather records

Advertising

Adelaide weather history for previous 24 hours

 ConditionsComfort  
Time TempWeatherWind HumidityBarometerVisibility
6:30 PM
Sun, Apr 26
59 °FOvercast.9 mph59%30.27 "HgN/A
6:00 PM59 °FOvercast.9 mph59%30.27 "HgN/A
5:30 PM59 °FPassing clouds.8 mph51%30.27 "HgN/A
5:00 PM59 °FPartly sunny.9 mph51%30.27 "HgN/A
4:30 PM59 °FPartly sunny.13 mph59%30.27 "HgN/A
4:00 PM61 °FPartly sunny.17 mph55%30.24 "HgN/A
3:30 PM61 °FPartly sunny.16 mph48%30.24 "HgN/A
3:00 PM63 °FPartly sunny.16 mph45%30.24 "HgN/A
2:30 PM63 °FBroken clouds.15 mph49%30.24 "HgN/A
2:00 PM63 °FScattered clouds.15 mph52%30.24 "HgN/A
1:30 PM63 °FScattered clouds.15 mph64%30.24 "HgN/A
1:00 PM59 °FPartly sunny.13 mph77%30.24 "HgN/A
12:30 PM63 °FPartly sunny.16 mph64%30.24 "HgN/A
12:00 PM61 °FScattered clouds.9 mph68%30.24 "HgN/A
11:30 AM59 °FScattered showers. Scattered clouds.17 mph77%30.27 "HgN/A
11:00 AM61 °FScattered clouds.15 mph68%30.27 "HgN/A
10:30 AM59 °FPartly sunny.15 mph72%30.27 "HgN/A
10:00 AM59 °FScattered clouds.17 mph72%30.27 "HgN/A
9:30 AM59 °FScattered clouds.7 mph72%30.27 "HgN/A
9:00 AM57 °FPassing clouds.3 mph77%30.27 "HgN/A
8:30 AM57 °FPassing clouds.No wind77%30.24 "HgN/A
8:00 AM54 °FPassing clouds.3 mph88%30.24 "HgN/A
7:30 AM52 °FPartly sunny.No wind88%30.24 "HgN/A
6:30 AM48 °FPassing clouds.6 mph94%30.21 "HgN/A
6:00 AM48 °FPassing clouds.2 mph94%30.18 "HgN/A
5:30 AM46 °FPassing clouds.5 mph93%30.18 "HgN/A
5:00 AM48 °FPassing clouds.5 mph87%30.18 "HgN/A
4:30 AM48 °FPassing clouds.3 mph94%30.18 "HgN/A
4:00 AM48 °FPassing clouds.6 mph87%30.18 "HgN/A
3:30 AM50 °FPassing clouds.5 mph88%30.15 "HgN/A
3:00 AM52 °FPassing clouds.6 mph77%30.15 "HgN/A
2:30 AM52 °FPassing clouds.6 mph77%30.18 "HgN/A
2:00 AM52 °FPassing clouds.7 mph77%30.15 "HgN/A
1:30 AM54 °FPassing clouds.8 mph72%30.15 "HgN/A
1:00 AM55 °FPassing clouds.6 mph63%30.15 "HgN/A
12:30 AM54 °FPassing clouds.6 mph72%30.15 "HgN/A
12:00 AM55 °FPassing clouds.8 mph67%30.15 "HgN/A
11:30 PM
Sat, Apr 25
57 °FPassing clouds.9 mph67%30.15 "HgN/A
11:00 PM57 °FPassing clouds.9 mph72%30.15 "HgN/A
10:30 PM55 °FPassing clouds.7 mph77%30.15 "HgN/A
10:00 PM54 °FPassing clouds.7 mph82%30.12 "HgN/A
9:30 PM54 °FPassing clouds.7 mph82%30.12 "HgN/A
9:00 PM55 °FPassing clouds.8 mph77%30.12 "HgN/A
8:30 PM55 °FPassing clouds.10 mph82%30.12 "HgN/A
8:00 PM57 °FPassing clouds.12 mph77%30.09 "HgN/A
Weather by CustomWeather, © 2015

See weather overviewHow to use our weather pages